SCP
-0 0 0 0 0 0 0 0 0 0 0 0 0 0 0 0 0 0 0 0 0 -0 -0 -0 0 0 0 0 0 0 0 0 0 0 0 0 0 0 0 0 0 0 0
0 0 0 0 0 0 0 0 0 0 0 0 0 0 0 0 0 0 0 0 0 0 0 0 0 0 0 0 0 0 0 0 0 0 0 0 0 0 0 0 0 0 0
0 0 0 0 0 0 0 0 0 0 0 0 0 0 0 0 0 0 0 0 0 -0 0 0 0 0 0 0 0 0 0 0 0 0 0 0 0 0 0 0 0 0 0
0 0 0 0 0 0 0 0 0 0 0 0 0 0 0 0 0 0 0 0 0 0 0 0 0 0 0 0 0 0 0 0 0 0 0 0 0 0 0 0 0 0 0
0 0 0 0 0 0 0 0 0 0 0 0 0 0 0 0 0 0 0 0 0 0 0 0 0 0 0 0 0 0 0 0 0 0 0 0 0 0 0 0 0 0 0
0 0 0 0 0 0 0 0 0 0 0 0 0 0 0 0 0 0 0 0 0 0 0 0 0 0 0 0 0 0 0 0 0 0 0 0 0 0 0 0 0 0 0
0 0 0 0 0 0 0 0 0 0 0 0 0 0 0 0 0 0 0 0 0 0 0 0 0 0 0 0 0 0 0 0 0 0 0 0 0 0 0 0 0 0 0
0 0 0 0 0 0 0 0 0 0 0 0 0 0 0 0 0 0 0 0 0 0 0 0 0 0 0 0 0 0 0 0 0 0 0 0 0 0 0 0 0 0 0
0 0 0 0 0 0 0 0 0 0 0 0 0 0 0 0 0 0 0 0 0 0 0 0 0 0 0 0 0 0 0 0 0 0 0 0 0 0 0 0 0 0 0
0 0 0 0 0 0 0 0 0 0 0 0 0 0 0 0 0 0 0 0 0 0 0 0 0 0 0 0 0 0 0 0 0 0 0 0 0 0 0 0 0 0 0
0 0 0 0 0 0 0 0 0 0 0 0 0 0 0 0 0 0 0 0 0 0 0 0 0 0 0 0 0 0 0 0 0 0 0 0 0 0 0 0 0 0 0
0 0 0 0 0 0 0 0 0 0 0 0 0 0 0 0 0 0 0 0 0 0 0 0 0 0 0 0 0 0 0 0 0 0 0 0 0 0 0 0 0 0 0
0 0 0 0 0 0 0 0 0 0 0 0 0 0 0 0 0 0 0 0 0 0 0 0 0 0 0 0 -0 -0 -0 -0 0 0 0 0 0 0 0 0 0 0 0
0 0 0 0 0 0 0 0 0 0 0 0 0 0 0 0 0 0 0 0 0 0 0 0 0 0 0 0 0 -0 -0 -0 0 0 0 0 0 0 0 0 0 0 0
0 0 0 0 0 0 0 0 0 0 0 0 0 0 0 0 0 0 0 0 0 0 0 0 0 0 0 0 0 0 -0 -0 -0 0 -0 -0 -0 -0 -0 0 0 0 0
0 0 0 0 0 0 0 0 0 0 0 0 0 0 0 0 0 0 0 0 0 0 0 0 0 0 0 0 0 0 0 -0 -0 0 0 -0 -0 -0 -0 -0 -0 0 0
0 0 0 0 0 0 0 0 0 0 0 0 0 0 0 0 0 0 0 0 0 0 0 0 0 0 0 0 0 0 0 0 0 0 0 -0 -0 -0 -0 -0 -0 -0 -0
0 0 0 0 0 0 0 0 0 0 0 0 0 0 0 0 0 0 0 0 0 0 0 0 0 0 0 0 0 0 0 0 0 0 -0 0 0 -0 -0 -0 -0 -0 -0
0 0 0 0 0 0 0 0 0 0 0 0 0 0 0 0 0 0 0 0 0 0 0 0 0 0 0 0 0 0 0 0 0 0 0 -0 -0 -0 -0 -0 -0 -0 0
0 0 0 0 0 0 0 0 0 0 0 0 0 0 0 0 0 0 0 0 0 0 0 0 0 0 0 0 0 0 0 0 0 0 0 0 0 -0 -0 -0 -0 -0 -0
0 0 0 0 0 0 0 0 0 0 0 0 0 0 0 0 0 0 0 0 0 0 0 0 0 0 0 0 0 0 0 0 0 0 0 0 0 0 -0 0 -0 -0 0
0 0 0 0 0 0 0 0 0 0 0 0 0 0 0 0 0 0 0 0 0 0 0 0 0 0 0 0 0 0 0 0 0 0 0 0 0 0 0 0 0 0 0
0 0 0 0 0 0 0 0 0 0 0 0 0 0 0 0 0 0 0 0 0 0 0 0 0 0 0 0 0 0 0 0 0 0 0 0 0 0 0 0 0 0 0
0 0 0 0 0 0 0 0 0 0 0 0 0 0 0 0 0 0 0 0 0 0 0 0 0 0 0 0 0 0 0 0 0 0 0 0 0 0 0 0 0 0 0
0 0 0 0 0 0 0 0 0 0 0 0 0 0 0 0 0 0 0 0 0 0 0 0 0 0 0 0 0 0 0 0 0 0 0 0 0 0 0 0 0 0 0
0 0 0 0 0 0 0 0 0 0 0 0 0 0 0 0 0 0 0 0 0 0 0 0 0 0 0 0 0 0 0 0 0 0 0 0 0 0 0 0 0 0 0
Wind_Speed_500mb
24 15 10 13 6 4 5 7 9 12 18 26 33 41 49 51 52 50 48 49 51 53 51 47 39 28 27 33 35 41 41 37 33 42 41 40 42 39 45 52 48 51 59
27 17 9 9 10 9 11 9 8 11 21 31 42 44 39 40 43 43 42 46 49 50 50 46 41 37 28 22 25 29 38 39 32 32 32 29 28 26 29 34 34 33 41
16 25 20 28 14 15 9 1 14 25 34 42 42 42 43 45 44 44 45 48 51 53 51 43 36 34 26 23 23 28 27 36 38 28 22 13 13 15 15 16 20 24 29
34 26 31 29 22 17 11 15 25 36 38 40 43 44 44 44 42 47 49 52 50 52 50 40 33 32 27 22 22 20 20 25 32 31 29 33 36 16 18 14 13 22 23
27 39 38 33 24 14 15 24 32 34 34 38 40 43 36 33 37 44 49 53 48 50 43 39 34 34 31 28 30 22 22 13 21 18 14 20 24 28 32 33 20 18 26
48 43 34 23 18 15 20 25 26 25 29 37 45 35 31 34 44 50 55 51 52 48 47 41 38 33 31 30 32 31 22 17 9 9 16 15 14 14 13 14 21 27 25
42 38 29 21 15 14 20 20 20 25 32 39 38 33 34 40 46 48 48 50 55 54 50 41 40 33 31 31 29 28 20 20 18 12 4 5 11 13 16 19 18 21 25
40 31 22 19 18 18 18 17 20 28 34 36 29 30 32 40 45 48 49 50 51 49 47 34 35 31 32 34 33 32 26 21 20 16 13 6 8 9 12 14 14 16 20
29 22 18 15 18 19 20 20 26 30 30 29 29 31 32 39 41 45 51 53 48 42 35 34 29 29 32 32 35 36 39 32 25 20 18 13 6 8 9 12 11 14 8
25 19 13 15 17 17 18 23 29 29 29 30 34 37 39 37 40 44 48 58 57 62 46 30 29 27 34 36 40 40 40 40 35 29 20 13 9 5 6 9 10 10 14
25 19 13 12 15 18 20 26 29 29 32 32 35 36 35 37 39 42 45 53 52 57 53 42 31 31 32 34 37 41 39 42 42 39 32 22 16 14 7 8 13 13 10
22 17 12 12 15 19 24 30 29 32 33 34 38 39 39 38 38 40 45 42 47 49 54 51 43 37 37 36 35 37 39 38 39 42 40 34 26 21 17 12 17 18 8
27 19 14 11 15 20 25 27 28 30 29 29 34 37 36 39 37 35 39 41 39 41 41 44 46 39 36 36 38 37 34 34 35 34 38 36 32 29 26 19 11 10 7
26 19 13 9 14 19 25 20 23 25 28 24 31 39 41 38 40 36 38 41 38 35 37 37 34 33 28 34 38 40 32 30 30 29 31 34 37 29 31 20 25 22 24
26 18 10 9 13 17 23 15 17 19 24 25 29 33 34 35 36 38 34 41 44 42 44 41 34 34 38 35 35 41 40 36 33 28 27 29 29 29 28 29 23 17 26
26 20 11 9 10 17 21 11 11 17 22 25 31 34 33 34 37 33 39 40 46 49 42 48 48 42 42 28 35 34 39 38 36 34 31 27 31 33 30 25 29 29 26
29 23 14 10 10 16 22 10 10 12 17 23 28 34 33 37 35 24 29 38 38 47 51 45 45 45 42 38 40 40 41 38 38 35 33 25 30 32 32 26 25 22 26
28 24 14 10 9 15 17 9 7 8 12 18 24 29 32 33 35 38 27 37 38 39 46 45 50 48 49 45 37 41 44 34 32 38 33 23 25 25 27 18 22 27 25
23 17 10 10 9 12 13 7 3 8 10 15 20 26 30 29 32 38 37 36 36 41 44 44 49 49 51 48 47 36 39 40 33 34 34 32 27 25 21 23 16 22 24
23 14 10 11 7 15 19 6 7 10 10 14 17 21 26 27 27 30 28 31 34 40 42 41 46 48 50 51 49 49 37 41 37 35 28 29 27 23 19 16 17 16 20
25 13 13 12 13 17 24 18 7 14 10 11 14 17 21 23 25 27 21 24 27 31 38 43 45 49 51 52 49 41 43 40 42 36 30 29 21 19 20 19 12 11 14
23 17 15 10 7 12 21 26 5 13 9 8 12 14 20 24 22 26 31 25 24 27 34 40 38 40 49 53 52 47 39 34 34 34 33 32 33 22 14 16 18 11 8
21 14 10 10 6 7 10 17 18 7 5 4 5 6 8 12 18 18 22 24 23 26 29 33 40 43 43 47 50 45 41 34 32 37 29 30 29 23 24 21 20 16 13
24 9 10 3 6 2 9 13 12 8 1 4 2 5 5 12 18 17 21 18 19 24 28 31 35 37 43 44 43 48 39 35 31 35 31 31 30 27 28 19 19 16 14
19 10 6 1 6 4 9 13 10 6 3 3 6 5 8 12 17 23 19 14 14 19 25 31 34 37 41 37 38 40 38 31 27 22 21 23 37 28 26 26 22 17 12
15 12 4 2 2 4 12 10 10 5 7 8 4 5 12 12 19 21 19 16 18 14 17 30 26 30 35 44 38 30 32 24 28 26 33 27 28 24 26 24 22 22 21
Wind_Direction_500mb
149 127 141 162 138 185 236 214 252 279 297 314 321 319 322 323 323 327 328 330 334 338 340 338 339 332 312 300 284 269 273 267 273 286 289 277 268 262 255 250 252 249 253
172 171 135 175 218 221 210 217 269 317 333 330 328 331 333 332 331 333 337 339 340 339 340 343 345 352 346 322 312 289 278 275 270 284 296 305 281 256 251 245 247 248 248
133 124 155 196 194 182 168 344 345 336 331 333 337 336 333 335 338 342 339 345 343 339 339 340 341 345 355 348 331 328 293 285 269 265 265 277 260 297 239 250 245 251 249
126 132 142 139 137 113 60 1 341 335 343 350 345 346 345 345 348 343 343 337 338 340 344 350 356 357 353 347 326 326 311 275 280 275 254 251 255 274 289 272 269 268 263
137 133 129 121 100 68 20 356 350 354 357 353 353 346 348 349 344 342 347 350 351 347 355 7 6 4 1 3 356 334 329 336 262 268 270 251 247 248 253 275 282 274 283
124 122 117 106 85 48 14 0 4 5 2 2 358 358 359 352 345 345 347 354 349 0 7 9 11 5 7 13 2 354 360 350 339 248 256 253 235 226 230 260 276 294 294
127 120 114 100 82 39 15 12 8 8 7 6 12 9 3 357 353 356 6 5 0 2 2 4 8 11 11 17 12 359 358 9 14 35 52 278 269 259 258 261 274 281 283
123 116 105 86 55 22 26 29 19 12 3 5 19 15 9 14 14 18 12 8 0 358 354 1 4 4 14 21 20 18 19 19 16 19 34 15 303 279 275 279 264 274 271
124 116 103 63 37 36 38 31 17 5 10 27 23 16 21 23 21 15 16 7 1 357 356 3 8 12 15 14 13 14 18 20 14 7 14 15 337 302 288 293 284 262 268
137 128 90 57 39 39 39 26 11 23 38 37 31 30 29 26 20 22 20 19 24 24 24 24 23 23 27 24 25 26 32 34 31 26 14 10 5 341 289 287 301 279 253
136 128 98 59 57 45 30 18 25 38 37 40 35 29 27 24 25 24 23 27 29 28 28 27 24 22 22 27 25 25 31 33 33 30 25 19 13 8 340 312 298 290 273
143 133 107 83 55 37 25 22 37 51 49 48 46 40 33 25 21 23 24 25 30 30 32 32 36 42 43 37 31 30 29 26 25 23 22 22 20 14 10 357 326 306 271
153 136 113 91 54 34 27 31 55 49 47 50 48 37 24 26 25 24 31 23 26 31 31 37 48 47 40 36 33 28 26 28 27 24 17 25 23 22 23 30 0 247 175
151 138 124 94 47 36 27 45 55 53 47 41 31 35 28 23 28 38 36 29 29 30 32 28 32 26 27 32 24 21 19 19 23 26 24 23 26 30 28 37 68 101 136
155 142 120 89 45 36 25 53 55 48 35 37 34 25 24 25 37 40 39 39 39 32 33 29 30 32 31 22 26 27 30 30 28 31 26 22 29 35 41 45 56 78 98
155 147 137 97 61 32 28 52 57 45 33 42 36 36 38 45 42 49 52 46 41 42 37 31 33 31 27 23 22 27 30 28 30 32 29 31 42 39 42 52 63 68 86
158 159 145 83 67 32 31 51 72 55 51 48 52 43 41 38 37 38 36 43 45 46 45 39 35 34 32 27 23 26 18 20 25 31 39 59 41 38 37 52 65 79 80
156 158 128 84 69 30 25 39 56 86 63 54 44 42 33 32 34 36 63 53 46 37 35 36 36 37 39 30 32 24 29 23 26 31 39 39 41 39 39 59 77 85 92
133 131 116 93 68 28 22 23 89 124 79 52 46 38 37 40 48 51 65 63 51 41 35 37 37 32 25 29 27 26 27 33 34 35 34 38 43 45 42 47 79 93 90
149 147 138 123 69 34 25 33 112 143 108 63 49 45 44 46 49 48 55 52 48 46 36 34 35 26 26 29 26 29 24 28 33 37 38 40 42 45 50 52 60 95 93
160 152 122 115 83 39 25 30 83 143 113 63 55 52 45 40 35 33 39 46 47 49 38 34 33 31 28 22 23 21 22 27 33 27 38 33 32 35 53 63 76 103 87
169 158 137 117 85 41 23 22 74 154 122 90 66 67 57 49 43 38 35 40 42 42 39 32 33 33 33 25 18 20 17 24 32 30 38 33 41 41 60 51 63 87 100
170 154 161 172 105 27 21 18 33 148 142 137 89 51 22 34 26 19 15 22 27 30 30 20 23 21 26 24 25 20 18 16 26 31 33 40 43 50 63 65 64 64 69
173 175 192 188 148 294 341 354 1 161 154 251 285 17 8 7 10 360 357 355 9 5 12 13 16 19 21 23 26 21 20 12 36 34 44 39 41 43 50 63 66 72 77
169 171 178 278 185 296 345 336 14 158 85 315 295 345 355 355 354 356 5 354 349 356 11 15 13 19 20 17 11 12 14 15 27 30 37 44 45 50 53 51 63 67 77
154 157 101 112 334 344 340 326 359 113 62 19 359 348 355 5 338 350 2 359 347 330 360 12 18 14 14 6 10 15 11 9 13 25 39 38 40 41 46 43 44 45 49
Wind_Speed_850mb
24 15 10 13 6 4 5 7 9 12 18 26 33 41 49 51 52 50 48 49 51 53 51 47 39 28 27 33 35 41 41 37 33 42 41 40 42 39 45 52 48 51 59
27 17 9 9 10 9 11 9 8 11 21 31 42 44 39 40 43 43 42 46 49 50 50 46 41 37 28 22 25 29 38 39 32 32 32 29 28 26 29 34 34 33 41
16 25 20 28 14 15 9 1 14 25 34 42 42 42 43 45 44 44 45 48 51 53 51 43 36 34 26 23 23 28 27 36 38 28 22 13 13 15 15 16 20 24 29
34 26 31 29 22 17 11 15 25 36 38 40 43 44 44 44 42 47 49 52 50 52 50 40 33 32 27 22 22 20 20 25 32 31 29 33 36 16 18 14 13 22 23
27 39 38 33 24 14 15 24 32 34 34 38 40 43 36 33 37 44 49 53 48 50 43 39 34 34 31 28 30 22 22 13 21 18 14 20 24 28 32 33 20 18 26
48 43 34 23 18 15 20 25 26 25 29 37 45 35 31 34 44 50 55 51 52 48 47 41 38 33 31 30 32 31 22 17 9 9 16 15 14 14 13 14 21 27 25
42 38 29 21 15 14 20 20 20 25 32 39 38 33 34 40 46 48 48 50 55 54 50 41 40 33 31 31 29 28 20 20 18 12 4 5 11 13 16 19 18 21 25
40 31 22 19 18 18 18 17 20 28 34 36 29 30 32 40 45 48 49 50 51 49 47 34 35 31 32 34 33 32 26 21 20 16 13 6 8 9 12 14 14 16 20
29 22 18 15 18 19 20 20 26 30 30 29 29 31 32 39 41 45 51 53 48 42 35 34 29 29 32 32 35 36 39 32 25 20 18 13 6 8 9 12 11 14 8
25 19 13 15 17 17 18 23 29 29 29 30 34 37 39 37 40 44 48 58 57 62 46 30 29 27 34 36 40 40 40 40 35 29 20 13 9 5 6 9 10 10 14
25 19 13 12 15 18 20 26 29 29 32 32 35 36 35 37 39 42 45 53 52 57 53 42 31 31 32 34 37 41 39 42 42 39 32 22 16 14 7 8 13 13 10
22 17 12 12 15 19 24 30 29 32 33 34 38 39 39 38 38 40 45 42 47 49 54 51 43 37 37 36 35 37 39 38 39 42 40 34 26 21 17 12 17 18 8
27 19 14 11 15 20 25 27 28 30 29 29 34 37 36 39 37 35 39 41 39 41 41 44 46 39 36 36 38 37 34 34 35 34 38 36 32 29 26 19 11 10 7
26 19 13 9 14 19 25 20 23 25 28 24 31 39 41 38 40 36 38 41 38 35 37 37 34 33 28 34 38 40 32 30 30 29 31 34 37 29 31 20 25 22 24
26 18 10 9 13 17 23 15 17 19 24 25 29 33 34 35 36 38 34 41 44 42 44 41 34 34 38 35 35 41 40 36 33 28 27 29 29 29 28 29 23 17 26
26 20 11 9 10 17 21 11 11 17 22 25 31 34 33 34 37 33 39 40 46 49 42 48 48 42 42 28 35 34 39 38 36 34 31 27 31 33 30 25 29 29 26
29 23 14 10 10 16 22 10 10 12 17 23 28 34 33 37 35 24 29 38 38 47 51 45 45 45 42 38 40 40 41 38 38 35 33 25 30 32 32 26 25 22 26
28 24 14 10 9 15 17 9 7 8 12 18 24 29 32 33 35 38 27 37 38 39 46 45 50 48 49 45 37 41 44 34 32 38 33 23 25 25 27 18 22 27 25
23 17 10 10 9 12 13 7 3 8 10 15 20 26 30 29 32 38 37 36 36 41 44 44 49 49 51 48 47 36 39 40 33 34 34 32 27 25 21 23 16 22 24
23 14 10 11 7 15 19 6 7 10 10 14 17 21 26 27 27 30 28 31 34 40 42 41 46 48 50 51 49 49 37 41 37 35 28 29 27 23 19 16 17 16 20
25 13 13 12 13 17 24 18 7 14 10 11 14 17 21 23 25 27 21 24 27 31 38 43 45 49 51 52 49 41 43 40 42 36 30 29 21 19 20 19 12 11 14
23 17 15 10 7 12 21 26 5 13 9 8 12 14 20 24 22 26 31 25 24 27 34 40 38 40 49 53 52 47 39 34 34 34 33 32 33 22 14 16 18 11 8
21 14 10 10 6 7 10 17 18 7 5 4 5 6 8 12 18 18 22 24 23 26 29 33 40 43 43 47 50 45 41 34 32 37 29 30 29 23 24 21 20 16 13
24 9 10 3 6 2 9 13 12 8 1 4 2 5 5 12 18 17 21 18 19 24 28 31 35 37 43 44 43 48 39 35 31 35 31 31 30 27 28 19 19 16 14
19 10 6 1 6 4 9 13 10 6 3 3 6 5 8 12 17 23 19 14 14 19 25 31 34 37 41 37 38 40 38 31 27 22 21 23 37 28 26 26 22 17 12
15 12 4 2 2 4 12 10 10 5 7 8 4 5 12 12 19 21 19 16 18 14 17 30 26 30 35 44 38 30 32 24 28 26 33 27 28 24 26 24 22 22 21
Wind_Direction_850mb
149 127 141 162 138 185 236 214 252 279 297 314 321 319 322 323 323 327 328 330 334 338 340 338 339 332 312 300 284 269 273 267 273 286 289 277 268 262 255 250 252 249 253
172 171 135 175 218 221 210 217 269 317 333 330 328 331 333 332 331 333 337 339 340 339 340 343 345 352 346 322 312 289 278 275 270 284 296 305 281 256 251 245 247 248 248
133 124 155 196 194 182 168 344 345 336 331 333 337 336 333 335 338 342 339 345 343 339 339 340 341 345 355 348 331 328 293 285 269 265 265 277 260 297 239 250 245 251 249
126 132 142 139 137 113 60 1 341 335 343 350 345 346 345 345 348 343 343 337 338 340 344 350 356 357 353 347 326 326 311 275 280 275 254 251 255 274 289 272 269 268 263
137 133 129 121 100 68 20 356 350 354 357 353 353 346 348 349 344 342 347 350 351 347 355 7 6 4 1 3 356 334 329 336 262 268 270 251 247 248 253 275 282 274 283
124 122 117 106 85 48 14 0 4 5 2 2 358 358 359 352 345 345 347 354 349 0 7 9 11 5 7 13 2 354 360 350 339 248 256 253 235 226 230 260 276 294 294
127 120 114 100 82 39 15 12 8 8 7 6 12 9 3 357 353 356 6 5 0 2 2 4 8 11 11 17 12 359 358 9 14 35 52 278 269 259 258 261 274 281 283
123 116 105 86 55 22 26 29 19 12 3 5 19 15 9 14 14 18 12 8 0 358 354 1 4 4 14 21 20 18 19 19 16 19 34 15 303 279 275 279 264 274 271
124 116 103 63 37 36 38 31 17 5 10 27 23 16 21 23 21 15 16 7 1 357 356 3 8 12 15 14 13 14 18 20 14 7 14 15 337 302 288 293 284 262 268
137 128 90 57 39 39 39 26 11 23 38 37 31 30 29 26 20 22 20 19 24 24 24 24 23 23 27 24 25 26 32 34 31 26 14 10 5 341 289 287 301 279 253
136 128 98 59 57 45 30 18 25 38 37 40 35 29 27 24 25 24 23 27 29 28 28 27 24 22 22 27 25 25 31 33 33 30 25 19 13 8 340 312 298 290 273
143 133 107 83 55 37 25 22 37 51 49 48 46 40 33 25 21 23 24 25 30 30 32 32 36 42 43 37 31 30 29 26 25 23 22 22 20 14 10 357 326 306 271
153 136 113 91 54 34 27 31 55 49 47 50 48 37 24 26 25 24 31 23 26 31 31 37 48 47 40 36 33 28 26 28 27 24 17 25 23 22 23 30 0 247 175
151 138 124 94 47 36 27 45 55 53 47 41 31 35 28 23 28 38 36 29 29 30 32 28 32 26 27 32 24 21 19 19 23 26 24 23 26 30 28 37 68 101 136
155 142 120 89 45 36 25 53 55 48 35 37 34 25 24 25 37 40 39 39 39 32 33 29 30 32 31 22 26 27 30 30 28 31 26 22 29 35 41 45 56 78 98
155 147 137 97 61 32 28 52 57 45 33 42 36 36 38 45 42 49 52 46 41 42 37 31 33 31 27 23 22 27 30 28 30 32 29 31 42 39 42 52 63 68 86
158 159 145 83 67 32 31 51 72 55 51 48 52 43 41 38 37 38 36 43 45 46 45 39 35 34 32 27 23 26 18 20 25 31 39 59 41 38 37 52 65 79 80
156 158 128 84 69 30 25 39 56 86 63 54 44 42 33 32 34 36 63 53 46 37 35 36 36 37 39 30 32 24 29 23 26 31 39 39 41 39 39 59 77 85 92
133 131 116 93 68 28 22 23 89 124 79 52 46 38 37 40 48 51 65 63 51 41 35 37 37 32 25 29 27 26 27 33 34 35 34 38 43 45 42 47 79 93 90
149 147 138 123 69 34 25 33 112 143 108 63 49 45 44 46 49 48 55 52 48 46 36 34 35 26 26 29 26 29 24 28 33 37 38 40 42 45 50 52 60 95 93
160 152 122 115 83 39 25 30 83 143 113 63 55 52 45 40 35 33 39 46 47 49 38 34 33 31 28 22 23 21 22 27 33 27 38 33 32 35 53 63 76 103 87
169 158 137 117 85 41 23 22 74 154 122 90 66 67 57 49 43 38 35 40 42 42 39 32 33 33 33 25 18 20 17 24 32 30 38 33 41 41 60 51 63 87 100
170 154 161 172 105 27 21 18 33 148 142 137 89 51 22 34 26 19 15 22 27 30 30 20 23 21 26 24 25 20 18 16 26 31 33 40 43 50 63 65 64 64 69
173 175 192 188 148 294 341 354 1 161 154 251 285 17 8 7 10 360 357 355 9 5 12 13 16 19 21 23 26 21 20 12 36 34 44 39 41 43 50 63 66 72 77
169 171 178 278 185 296 345 336 14 158 85 315 295 345 355 355 354 356 5 354 349 356 11 15 13 19 20 17 11 12 14 15 27 30 37 44 45 50 53 51 63 67 77
154 157 101 112 334 344 340 326 359 113 62 19 359 348 355 5 338 350 2 359 347 330 360 12 18 14 14 6 10 15 11 9 13 25 39 38 40 41 46 43 44 45 49